531  
ASUS44 KEWX 191410  
RWRTX  
SOUTH TEXAS REGIONAL WEATHER ROUNDUP  
NATIONAL WEATHER SERVICE AUSTIN/SAN ANTONIO TX  
900 AM CDT SAT APR 19 2014  
 
NOTE: "FAIR" INDICATED FEW OR NO CLOUDS BELOW 12,000 FEET WITH NO  
SIGNIFICANT WEATHER AND/OR S TO VISIBILITY
.  
 
* - THESE STATIONS ARE NOT NWS OR FAA STATIONS...AND ARE NOT SUBJECT  
TO NWS AND FAA QUALITY CONTROL.
 
 
TXZ171-172-183>190-191500-  
TEXAS HILL COUNTRY AND EDWARDS PLATEAU  
 
CITY SKY/WX TMP DP RH WIND PRES REMARKS
 
JUNCTION MOSUNNY 63 54 72 VRB5 30.17R  
*LLANO MOSUNNY 63 54 72 CALM 30.20S  
BURNET N/A 62 54 74 MISG 30.20R  
*HORSESHOE BAY MOSUNNY 62 54 74 CALM 30.16R  
*KERRVILLE CLOUDY 59 54 83 SE3 30.18R  
*FREDERICKSBRG MOSUNNY 59 54 82 CALM 30.18R  
*ROCKSPRINGS MOSUNNY 61 52 72 SE9 30.18R  
*BOERNE STAGE MOSUNNY 63 55 77 SE3 30.19S  
*CASTROVILLE MOSUNNY 62 57 82 E6 30.19R  
HONDO CLOUDY 63 55 75 E5 30.19R  
*UVALDE CLOUDY 60 55 81 E8 30.16R  
DEL RIO CLOUDY 66 52 60 E9 30.11R  
LAUGHLIN AFB CLOUDY 65 52 61 SE9 30.13R  
CARRIZO SPRGS N/A 61 52 72 E5 30.12S  

 
 
TXZ173-191>194-202-209-217>225-228-191500-  
CENTRAL AND SOUTH CENTRAL TEXAS  
 
CITY SKY/WX TMP DP RH WIND PRES REMARKS
 
GEORGETOWN SUNNY 61 54 77 CALM 30.18R  
AUSTIN/BERGSTM PTSUNNY 61 56 83 CALM 30.18R FOG  
AUSTIN/MABRY MOSUNNY 60 55 83 CALM 30.19R  
*AUSTIN/EXEC MOSUNNY 59 57 94 CALM 30.19R FOG  
*LAGO VISTA MOSUNNY 65 55 71 S3 30.18R  
SAN MARCOS SUNNY 61 54 77 CALM 30.20R  
NEW BRAUNFELS MOSUNNY 61 58 90 CALM 30.17R  
RANDOLPH AFB MOSUNNY 61 57 85 CALM 30.17R  
PT SAN ANTONIO MOSUNNY 64 58 80 CALM 30.16R  
SAN ANTONIO PTSUNNY 63 57 81 CALM 30.17R  
STINSON FIELD MOSUNNY 65 59 81 CALM 30.15F  
*PLEASANTON MOSUNNY 62 57 84 CALM 30.16S  
*LA GRANGE FOG 59 59 100 CALM 30.16R VSB<1/4  
*GIDDINGS MOSUNNY 60 59 98 CALM 30.21R FOG  
*GONZALES PTSUNNY 59 59 99 CALM 30.17R FOG  

 
 
TXZ163>164-176>182-195>201-210>213-226-227-235-191500-  
SOUTHEAST TEXAS  
 
CITY SKY/WX TMP DP RH WIND PRES REMARKS
 
COLLEGE STN MOSUNNY 62 56 80 CALM 30.19R  
*BRYAN MOSUNNY 60 56 86 SE3 30.19R  
*CALDWELL MOSUNNY 61 59 94 CALM 30.22R  
*CROCKETT MOSUNNY 68 61 77 SE3 30.23R  
*BRENHAM MOSUNNY 60 58 92 CALM 30.19R FOG  
HUNTSVILLE MOSUNNY 64 56 75 CALM 30.19R  
CONROE MOSUNNY 62 58 86 CALM 30.20R  
HOUSTON BUSH PTSUNNY 65 58 78 NE3 30.19R  
HOUSTON HOBBY PTSUNNY 67 58 72 CALM 30.18R  
*HOUSTON SW AP MOSUNNY 64 61 90 NW6 30.19R  
PEARLAND MOSUNNY 67 59 75 NE3 30.19R  
HOUSTON HOOKS MOSUNNY 63 58 83 E3 30.19R  
ELLINGTON FLD PTSUNNY 68 63 83 NE3 30.20R  
SUGAR LAND MOSUNNY 66 60 81 NE6 30.18R  
*HOUSTON EXEC MOSUNNY 63 63 100 N6 30.19S FOG  
*CLEVELAND MUN MOSUNNY 62 58 88 CALM 30.20R  
*WHARTON SUNNY 61 61 99 NE3 30.18S FOG  

 
 
TXZ214>216-236>238-191500-  
THE UPPER TEXAS COAST  
 
CITY SKY/WX TMP DP RH WIND PRES REMARKS
 
*ORANGE MOSUNNY 65 59 82 E10 30.20R  
PORT ARTHUR CLOUDY 66 60 81 E12 30.18R  
GALVESTON SUNNY 68 64 87 NE3 30.17R  
ANGLETON SUNNY 65 60 84 N5 30.17R  
*BAY CITY SUNNY 62 62 100 CALM 30.18R FOG  
PALACIOS SUNNY 65 61 87 NE6 30.16S  

 
 
TXZ229>234-239>247-191500-  
TEXAS COASTAL BEND AND RIO GRANDE PLAINS  
 
CITY SKY/WX TMP DP RH WIND PRES REMARKS
 
VICTORIA FOG 60 59 96 NE7 30.17R VSB 1/2  
*BEEVILLE MOSUNNY 62 62 100 CALM 30.15R  
ROCKPORT PTSUNNY 66 63 90 NE7 30.14S FOG  
*PORT ARANSAS PTSUNNY 67 64 87 E7 30.14S  
*PORT LAVACA PTSUNNY 60 60 97 NE9 30.16R FOG  
*INGLESIDE MOSUNNY 69 64 85 E7 30.14S  
CORPUS CHRISTI PTSUNNY 69 61 75 E7 30.14R  
CORPUS NAS MOSUNNY 69 64 84 E10 30.14R  
*ROBSTOWN MOSUNNY 67 63 86 E6 30.14S  
ALICE PTSUNNY 65 60 84 E5 30.13R  
KINGSVILLE NAS PTSUNNY 67 62 84 NE6 30.13S  
COTULLA CLOUDY 63 56 78 SE7 30.14R  
*FAITH RANCH CLOUDY 66 52 59 SE9 30.12S  
LAREDO CLOUDY 67 58 72 SE7 30.14S  

 
 
TXZ248>255-191500-  
DEEP SOUTH TEXAS  
 
CITY SKY/WX TMP DP RH WIND PRES REMARKS
 
BROWNSVILLE MOSUNNY 69 66 90 E8 30.11S  
PORT ISABEL MOSUNNY 71 65 81 E9 30.11R  
*SOUTH PADRE LGT RAIN 72 66 83 MISG 30.12R  
HARLINGEN CLOUDY 67 64 90 E5 30.11R  
*HEBBRONVILLE PTSUNNY 62 60 94 SE5 30.13S FOG  
MCALLEN CLOUDY 67 61 81 E7 30.12R  
*WESLACO CLOUDY 66 61 84 E3 30.12R  
FALFURRIAS PTSUNNY 60 58 90 E3 30.13S  
EDINBURG CLOUDY 65 62 90 E6 30.12S  
*ZAPATA CLOUDY 66 59 77 E5 30.11S  

 
 
TXZ213>215-236>238-242>244-246-247-251-254-255-191500-  
CMAN STATIONS  
 
STATION/POSITION TIME TEMP WIND PRES WAVE
 
AIR SEA DIR/SP/G HT/PER  
(UTC) (F) (DEG/KT/KT) (MB) (FT/S)  
SABINE PASS 1400 66 65 120/ 11/ 15 1021.5  
SEA RIM ST PARK 1400 66 110/ 11/ 13 1022.3  
NORTH JETTY/GLS 1400 65 69 80/ 6/ 6 N/A  
EAGLE POINT 1400 64 60 80/ 5/ 7 1021.3  
MORGANS POINT 1400 63 64 60/ 4/ 5 N/A  
MISSION/ARANSAS 1300 60 50/ 7 1021.0  
PORT O'CONNOR 1400 60/ 8/ 9 N/A  
PORT ARANSAS 1400 67 67 70/ 7/ 7 1020.7  
MALAQUITE BEACH 1400 67 69 60/ 6/ 7 1019.8  
BAFFIN BAY 1400 67 66 70/ 5/ 6 1020.2  
PORT ISABEL 1400 69 68 80/ 6/ 8 1019.9  

 
 
GMZ080-GMZ150>470-191500-  
OFFSHORE BUOY REPORTS  
 
STATION/POSITION TIME TEMP WIND PRES WAVE
 
AIR SEA DIR/SP/G HT/PER  
(UTC) (F) (DEG/KT/KT) (MB) (FT/S)  
20 E GALVESTON 1400 67 67 90/ 12/ 14 1020.8 2/ 3  
35 NE PT MANSFLD 1400 68 67 110/ 8/ 10 1020.2 4/ 9  

 
 
CLICK HERE TO GO TO PREVIOUS BULLETINS.

The Nexlab TX Page Main Text Page